AMC-21

Last updated on Thu Nov 21 2024 00:02:41 GMT+0000 (Coordinated Universal Time)

1 33275U 08038B 24325.05605310 .00000038 00000+0 00000+0 0 9994 2 33275 1.4613 87.6668 0003594 161.5555 65.6290 1.00271253 59730
UTC large
Height (km)
Speed (km/s)
/
Latitude / Longitude
Inclination (degrees)
Orbital Period (minutes)
Azimuth
Elevation
Range (km)
Doppler Factor

Next 0 passes for location: London (51.5072 / 0.1276)

Sorry there are no passes over London.